Location: Recife
(8.0585°S, 34.8848°W)
Time: 07:14:09
(UTC-03:00)

Courier 1B - Pass Details

Date: 15 April 2026
Orbit: 962 x 1209 km, 28.3° (Epoch: 13 May)

Event Time Altitude Azimuth Distance (km) Brightness Sun altitude
Rises 07:14:05 0° 271° (W) 4,064 10.2 26.3°
Reaches altitude 10° 07:17:16 10° 261° (W) 3,123 9.7 27.1°
Maximum altitude 07:24:03 32° 201° (SSW) 1,951 9.0 28.7°
Drops below altitude 10° 07:30:53 10° 141° (SE) 3,136 10.5 30.3°
Sets 07:34:07 0° 131° (SE) 4,083 11.2 31.1°
